Welcome to the New NWS' Forecast!
Most changes are behind the scenes, but click here for differences you might notice.

Regional Weather Roundup (RWR)

Issued by National Weather Service (NWS)

                            
874 
ASUS46 KSEW 191110
RWRWA 

WASHINGTON REGIONAL WEATHER ROUNDUP
NATIONAL WEATHER SERVICE SEATTLE WA
400 AM PDT THU JUL 19 2018

NOTE:"FAIR" INDICATES FEW OR NO CLOUDS BELOW 12,000 FEET WITH NO 
SIGNIFICANT WEATHER AND/OR OBSTRUCTIONS TO VISIBILITY.

WAZ507-509-555>559-191200-
SEATTLE, TACOMA, EVERETT, AND VICINITY
  
CITY           SKY/WX    TMP DP  RH WIND       PRES   REMARKS
EVERETT        CLOUDY    57  52  83 N6        30.16S                  
BOEING FIELD   CLOUDY    59  51  75 SW5       30.16R                  
RENTON         CLOUDY    60  51  72 S7        30.15S                  
SEATAC AIRPORT CLOUDY    56  51  84 S5        30.16S                  
JBLM-MCCHORD   NOT AVBL                                               
PUYALLUP       MOCLDY    52  52 100 CALM      30.17S                  
BREMERTON      CLOUDY    54  51  90 CALM      30.16S                  
JBLM-FT LEWIS  NOT AVBL                                               
TACOMA NARROWS CLOUDY    53  50  89 S6        30.16F                  
$$
 
WAZ001-503-506-510-514-515-191200-
NORTH INTERIOR
  
CITY           SKY/WX    TMP DP  RH WIND       PRES   REMARKS
BELLINGHAM     CLOUDY    59  50  72 SE12      30.11S                  
FRIDAY HARBOR  CLEAR     54  49  83 VRB3      30.13R                  
EASTSOUND      MOCLDY    55  52  88 S9        30.10S                  
PORT ANGELES   CLEAR     49  48  97 W6        30.15S                  
EDIZ HOOK      FAIR      54  51  88 W9        30.15S                  
PORT TOWNSEND  CLOUDY    59  52  77 NW5       30.15S                  
NAS WHIDBEY    CLOUDY    58  51  78 SW9       30.17S                  
ARLINGTON      CLOUDY    58  51  78 NW7       30.16S                  
BURLINGTON     CLOUDY    57  52  82 S6G12     30.15S                  
$$
 
WAZ020-022-039-040-504-511-512-191200-
SOUTHWEST INTERIOR
  
CITY           SKY/WX    TMP DP  RH WIND       PRES   REMARKS
SHELTON        CLOUDY    56  51  84 SW3       30.13S                  
OLYMPIA        CLOUDY    53  50  89 CALM      30.16S                  
CHEHALIS       CLOUDY    54  54 100 SW3       30.18S                  
KELSO          CLOUDY    59  51  75 N3        30.19R                  
VANCOUVER      PTCLDY    60  52  74 NW12G17   30.16R                  
SCAPPOOSE, OR  CLOUDY    60  50  69 NW6       30.16R                  
PORTLAND, OR   MOCLDY    60  51  72 NW8       30.17R                  
$$
 
WAZ021-516-517-191200-
WASHINGTON COAST
  
CITY           SKY/WX    TMP DP  RH WIND       PRES   REMARKS
FORKS          CLOUDY    55  51  86 W5        30.17F                  
HOQUIAM        CLEAR     57  54  89 W12       30.17F                  
ASTORIA, OR    CLOUDY    59  55  87 N8        30.18S                  
$$
 
WAZ019-023-024-040-567>569-191200-
CASCADE MOUNTAINS AND COLUMBIA GORGE
  
CITY           SKY/WX    TMP DP  RH WIND       PRES   REMARKS
STAMPEDE PASS  FOG       50  50 100 VRB3      30.16S VSB 1/4          
TROUTDALE, OR  CLOUDY    60  52  74 VRB3      30.17R                  
HOOD RIVER, OR MOSUNNY   63  52  67 W8G17     30.07R                  
THE DALLES, OR CLEAR     68  54  60 W13G21    30.02R                  
$$

WAZ026-027-041>044-520-521-191200-
EAST SLOPES
  
CITY           SKY/WX    TMP DP  RH WIND       PRES   REMARKS
OMAK           PTCLDY    68  47  46 NW8       29.94R                  
WENATCHEE      CLEAR     68  50  52 NW17      29.97S                  
ELLENSBURG     CLEAR     63  50  62 NW23G32   30.01S                  
YAKIMA         CLEAR     64  51  62 CALM      30.00R                  
SUNNYSIDE ARPT SUNNY     54  51  87 NE3       29.99R                  
YAKIMA TC      NOT AVBL                                               
$$

WAZ028-034-035-191200-
COLUMBIA BASIN
  
CITY           SKY/WX    TMP DP  RH WIND       PRES   REMARKS
EPHRATA        CLEAR     70  46  42 NW6       29.95R                  
MOSES LAKE     CLEAR     62  50  64 S3        29.96R                  
PASCO          CLEAR     68  55  63 S5        29.97S                  
RICHLAND ARPT  SUNNY     65  56  71 CALM      29.97S                  
HERMISTON, OR  CLEAR     70  46  42 S8        29.99R                  
$$

WAZ036>038-191200-
NORTHEAST WASHINGTON
  
CITY           SKY/WX    TMP DP  RH WIND       PRES   REMARKS
SPOKANE GEIGER PTCLDY    62  46  55 S10       30.00R                  
SPOKANE FELTS  CLEAR     69  48  47 W6        30.00R                  
FAIRCHILD AFB  NOT AVBL                                               
COEURDALENE,ID CLEAR     66  48  52 S9        30.01R                  
DEER PARK      CLEAR     64  45  49 S7        30.00R                  
$$

WAZ029>033-191200-
SOUTHEAST WASHINGTON
  
CITY           SKY/WX    TMP DP  RH WIND       PRES   REMARKS
PULLMAN        CLEAR     55  47  74 CALM      30.06S                  
LEWISTON, ID   CLEAR     66  44  45 CALM      30.00R                  
WALLA WALLA    CLEAR     71  47  42 S12       30.02R                  
PENDLETON, OR  CLEAR     69  43  38 S6        30.04R                  
$$